Tracking 19476 objects as of 17-Jan-2019
HD Live streaming from Space Station
objects crossing your sky now

COSMOS 1992

Track COSMOS 1992 now!
10-day predictions
COSMOS 1992 is classified as:


NORAD ID: 19769
Int'l Code: 1989-005A
Perigee: 766.3 km
Apogee: 799.3 km
Inclination: 74.0 °
Period: 100.4 minutes
Semi major axis: 7153 km
RCS: 2.1348 m2 (large)
Launch date: January 26, 1989
Source: Commonwealth of Independent States (former USSR) (CIS)
Launch site: PLESETSK MISSILE AND SPACE COMPLEX (PKMTR)
aabbcc
Your satellite tracking list
Your tracking list is empty




NASA's NSSDC Master Catalog

Two Line Element Set (TLE):
1 19769U 89005A   19016.49898380  .00000001  00000-0  94726-5 0  9994
2 19769  74.0457 170.8634 0023057 322.2132  37.7400 14.34829712568496
Source of the keplerian elements: AFSPC